KQ4NAL Weather Reports


Display with metric or nautical units.
time (UTC)temp
F
wind
direction
speed
MPH
gust
MPH
rain 1hr
in
rain 24hr
in
rain mn
in
humidity
%
barometer
mb
20260901012434 76 346 0.0 0.0 0.00 0.00 0.00 91 1019.1
20260901011929 76 346 0.0 0.0 0.00 0.00 0.00 91 1019.0
20260901011426 76 346 0.0 0.0 0.00 0.00 0.00 90 1018.9
20260901010923 77 346 0.0 0.0 0.00 0.00 0.00 90 1018.9
20260901010419 77 346 0.0 0.0 0.00 0.00 0.00 90 1018.8
20260901005918 77 346 0.0 0.0 0.00 0.00 0.00 89 1018.7
20260901005413 77 347 0.0 0.0 0.00 0.00 0.00 89 1018.8
20260901004908 78 347 0.0 0.0 0.00 0.00 0.00 88 1018.4
20260901004407 78 347 0.0 0.0 0.00 0.00 0.00 88 1018.4
20260901003902 78 348 0.0 0.0 0.00 0.00 0.00 88 1018.4
20260901003357 78 345 0.0 0.0 0.00 0.00 0.00 87 1018.5
20260901002855 79 345 0.0 0.0 0.00 0.00 0.00 86 1018.3
20260901002355 79 345 0.0 0.0 0.00 0.00 0.00 85 1018.2
20260901001849 80 345 0.0 0.0 0.00 0.00 0.00 84 1018.3
20260901001345 81 329 0.0 0.0 0.00 0.00 0.00 83 1018.1
20260901000840 81 347 0.0 0.0 0.00 0.00 0.00 80 1018.0
20260901000330 82 345 0.0 0.0 0.00 0.00 0.00 80 1017.9
20260831235828 83 349 0.0 0.0 0.00 0.00 0.00 79 1017.8
20260831235325 84 350 0.0 0.0 0.00 0.00 0.00 74 1018.1
20260831234824 84 347 0.0 0.0 0.00 0.00 0.00 73 1017.8
20260831234319 85 342 0.0 0.0 0.00 0.00 0.00 72 1017.9
20260831233815 85 338 0.0 0.0 0.00 0.00 0.00 71 1017.7
20260831233310 86 308 1.0 1.0 0.00 0.00 0.00 71 1017.9
20260831232805 86 312 2.0 2.0 0.00 0.00 0.00 70 1017.7
20260831232305 86 271 2.0 2.0 0.00 0.00 0.00 69 1017.9
20260831231756 87 330 1.0 1.0 0.00 0.00 0.00 69 1018.0
20260831231253 87 256 0.0 1.0 0.00 0.00 0.00 68 1017.8
20260831230748 88 178 3.0 3.0 0.00 0.00 0.00 67 1018.1
20260831230243 88 349 0.0 0.0 0.00 0.00 0.00 67 1018.0
20260831225742 89 313 1.0 1.0 0.00 0.00 0.00 65 1017.9
20260831225238 89 284 2.0 2.0 0.00 0.00 0.00 64 1018.0
20260831224733 90 287 2.0 2.0 0.00 0.00 0.00 63 1018.3
20260831224228 90 262 3.0 3.0 0.00 0.00 0.00 63 1018.1
20260831223723 90 247 3.0 5.0 0.00 0.00 0.00 61 1018.3
20260831223220 90 251 3.0 5.0 0.00 0.00 0.00 62 1018.2
20260831222715 90 225 4.0 5.0 0.00 0.00 0.00 62 1018.5
20260831222211 90 286 3.0 3.0 0.00 0.00 0.00 62 1018.4
20260831221706 90 235 1.0 2.0 0.00 0.00 0.00 63 1018.4
20260831221201 91 235 3.0 6.0 0.00 0.00 0.00 63 1018.6
20260831220656 91 230 4.0 6.0 0.00 0.00 0.00 61 1018.8
20260831220151 91 312 1.0 2.0 0.00 0.00 0.00 61 1018.4
20260831215641 91 246 2.0 2.0 0.00 0.00 0.00 62 1018.6
20260831215136 91 220 3.0 3.0 0.00 0.00 0.00 61 1018.7
20260831214633 91 339 3.0 3.0 0.00 0.00 0.00 59 1018.7
20260831214129 91 169 4.0 5.0 0.00 0.00 0.00 61 1018.7
20260831213626 93 256 1.0 5.0 0.00 0.00 0.00 57 1018.7
20260831213120 93 266 1.0 2.0 0.00 0.00 0.00 58 1018.7
20260831212616 93 341 3.0 6.0 0.00 0.00 0.00 57 1018.6
20260831212112 93 345 1.0 2.0 0.00 0.00 0.00 56 1018.7
20260831211606 92 273 0.0 0.0 0.00 0.00 0.00 59 1018.6
20260831211105 92 228 3.0 5.0 0.00 0.00 0.00 59 1018.9
20260831210600 91 309 1.0 1.0 0.00 0.00 0.00 61 1018.8
20260831210057 92 209 6.0 7.0 0.00 0.00 0.00 58 1018.9
20260831205556 94 319 3.0 5.0 0.00 0.00 0.00 55 1018.8
20260831205052 93 318 1.0 1.0 0.00 0.00 0.00 55 1019.0
20260831204548 95 354 2.0 2.0 0.00 0.00 0.00 54 1018.8
20260831204046 95 314 0.0 0.0 0.00 0.00 0.00 55 1019.2
20260831203541 94 346 1.0 2.0 0.00 0.00 0.00 55 1019.1
20260831203040 94 255 2.0 3.0 0.00 0.00 0.00 55 1019.2
20260831202539 93 308 3.0 3.0 0.00 0.00 0.00 54 1019.2
20260831202038 94 264 4.0 9.0 0.00 0.00 0.00 53 1019.2
20260831201537 94 293 1.0 2.0 0.00 0.00 0.00 54 1019.3
20260831201033 94 252 4.0 5.0 0.00 0.00 0.00 55 1019.4
20260831200529 94 271 3.0 5.0 0.00 0.00 0.00 55 1019.5
20260831200024 94 320 0.0 0.0 0.00 0.00 0.00 54 1019.6
20260831195520 94 281 3.0 5.0 0.00 0.00 0.00 56 1019.3
20260831195019 93 264 4.0 7.0 0.00 0.00 0.00 55 1019.7
20260831194514 92 333 3.0 3.0 0.00 0.00 0.00 59 1019.6
20260831194009 93 316 0.0 1.0 0.00 0.00 0.00 57 1019.7
20260831193504 91 344 0.0 1.0 0.00 0.00 0.00 60 1019.5
20260831192959 90 340 1.0 1.0 0.00 0.00 0.00 60 1019.7
20260831192454 89 351 0.0 0.0 0.00 0.00 0.00 62 1020.0
20260831191949 91 292 1.0 2.0 0.00 0.00 0.00 60 1020.1
20260831191445 91 345 2.0 2.0 0.00 0.00 0.00 60 1020.2
20260831190941 93 292 4.0 6.0 0.00 0.00 0.00 57 1020.0
20260831190436 93 267 4.0 6.0 0.00 0.00 0.00 58 1020.0
20260831185934 94 249 5.0 6.0 0.00 0.00 0.00 60 1020.1
20260831185431 93 345 0.0 0.0 0.00 0.00 0.00 58 1020.1
20260831184931 92 25 3.0 3.0 0.00 0.00 0.00 61 1020.4
20260831184431 93 0 0.0 0.0 0.00 0.00 0.00 57 1020.2
20260831183927 93 207 8.0 9.0 0.00 0.00 0.00 55 1020.3
20260831183426 94 0 4.0 6.0 0.00 0.00 0.00 58 1020.3
20260831182925 91 343 2.0 3.0 0.00 0.00 0.00 65 1020.1
20260831182420 92 263 1.0 1.0 0.00 0.00 0.00 63 1020.3
20260831181916 91 342 1.0 1.0 0.00 0.00 0.00 60 1020.3
20260831181411 91 331 4.0 6.0 0.00 0.00 0.00 62 1020.4
20260831180906 91 312 2.0 3.0 0.00 0.00 0.00 64 1020.2
20260831180406 91 352 1.0 2.0 0.00 0.00 0.00 62 1020.3
20260831175905 92 280 3.0 3.0 0.00 0.00 0.00 59 1020.4
20260831175401 91 231 4.0 5.0 0.00 0.00 0.00 62 1020.4
20260831174857 92 319 2.0 3.0 0.00 0.00 0.00 60 1020.6
20260831174353 92 313 1.0 2.0 0.00 0.00 0.00 59 1020.8
20260831173851 92 3 5.0 7.0 0.00 0.00 0.00 60 1020.5
20260831173346 93 319 2.0 2.0 0.00 0.00 0.00 61 1020.8
20260831172841 92 201 2.0 3.0 0.00 0.00 0.00 61 1020.8
20260831172337 92 272 6.0 7.0 0.00 0.00 0.00 61 1020.7
20260831171836 92 277 6.0 8.0 0.00 0.00 0.00 60 1020.7
20260831171333 91 319 4.0 6.0 0.00 0.00 0.00 61 1020.7
20260831170829 91 323 3.0 5.0 0.00 0.00 0.00 62 1020.9
20260831170325 91 225 6.0 7.0 0.00 0.00 0.00 65 1020.9
20260831165821 91 271 3.0 5.0 0.00 0.00 0.00 62 1020.8
20260831165318 91 15 1.0 2.0 0.00 0.00 0.00 63 1021.0
20260831164814 92 335 3.0 5.0 0.00 0.00 0.00 61 1020.7
20260831164309 89 301 3.0 3.0 0.00 0.00 0.00 64 1021.0
20260831163804 89 324 3.0 3.0 0.00 0.00 0.00 65 1021.0
20260831163300 89 263 1.0 2.0 0.00 0.00 0.00 67 1021.1
20260831162759 89 255 2.0 3.0 0.00 0.00 0.00 67 1021.2
20260831162254 89 275 6.0 9.0 0.00 0.00 0.00 66 1020.8
20260831161748 90 190 7.0 8.0 0.00 0.00 0.00 67 1021.0
20260831161245 90 225 4.0 5.0 0.00 0.00 0.00 68 1021.2
20260831160744 89 302 1.0 2.0 0.00 0.00 0.00 68 1021.0
20260831160239 89 331 1.0 1.0 0.00 0.00 0.00 68 1020.9
20260831155738 88 251 3.0 5.0 0.00 0.00 0.00 71 1021.2
20260831155234 88 286 1.0 2.0 0.00 0.00 0.00 70 1021.0
20260831154730 87 320 1.0 1.0 0.00 0.00 0.00 72 1020.8
20260831154226 88 246 3.0 3.0 0.00 0.00 0.00 73 1020.9
20260831153724 87 339 0.0 0.0 0.00 0.00 0.00 72 1021.1
20260831153220 85 311 1.0 1.0 0.00 0.00 0.00 76 1021.1
20260831152716 84 329 0.0 0.0 0.00 0.00 0.00 79 1021.1
20260831152212 84 340 0.0 0.0 0.00 0.00 0.00 78 1021.1
20260831151706 84 317 0.0 0.0 0.00 0.00 0.00 79 1021.3
20260831151200 83 343 0.0 0.0 0.00 0.00 0.00 78 1021.2
20260831150655 83 290 1.0 1.0 0.00 0.00 0.00 78 1021.0
20260831150151 84 270 3.0 3.0 0.00 0.00 0.00 77 1021.0
20260831145649 83 344 0.0 0.0 0.00 0.00 0.00 79 1021.0
20260831145146 82 320 0.0 0.0 0.00 0.00 0.00 82 1020.8
20260831144642 81 336 0.0 0.0 0.00 0.00 0.00 82 1021.0
20260831144137 81 303 1.0 1.0 0.00 0.00 0.00 83 1020.9
20260831143637 80 237 0.0 1.0 0.00 0.00 0.00 84 1020.9
20260831143132 80 319 0.0 0.0 0.00 0.00 0.00 85 1020.8
20260831142629 80 249 1.0 3.0 0.00 0.00 0.00 85 1021.0
20260831142124 79 342 0.0 0.0 0.00 0.00 0.00 86 1020.9
20260831141623 79 307 0.0 1.0 0.00 0.00 0.00 86 1020.9
20260831141124 79 251 4.0 5.0 0.00 0.00 0.00 85 1021.1
20260831140623 79 329 0.0 0.0 0.00 0.00 0.00 85 1021.1
20260831140118 78 333 0.0 0.0 0.00 0.00 0.00 87 1021.1
20260831135615 78 323 0.0 0.0 0.00 0.00 0.00 88 1020.8
20260831135112 77 341 1.0 2.0 0.00 0.00 0.00 88 1020.9
20260831134607 77 201 4.0 5.0 0.00 0.00 0.00 88 1020.8
20260831134102 77 315 0.0 0.0 0.00 0.00 0.00 88 1020.7
20260831133601 76 282 2.0 2.0 0.00 0.00 0.00 89 1020.7
20260831133056 76 320 1.0 2.0 0.00 0.00 0.00 89 1020.9
20260831132553 76 306 2.0 2.0 0.00 0.00 0.00 89 1020.9
20260831132051 76 17 0.0 0.0 0.00 0.00 0.00 89 1020.9
20260831131546 76 295 0.0 0.0 0.00 0.00 0.00 89 1020.9
20260831131042 76 352 0.0 1.0 0.00 0.00 0.00 88 1020.7
20260831130537 76 194 2.0 2.0 0.00 0.00 0.00 88 1020.7
20260831130033 75 198 3.0 3.0 0.00 0.00 0.00 89 1020.7
20260831125526 75 357 2.0 3.0 0.00 0.00 0.00 91 1020.7
20260831125022 74 14 0.0 0.0 0.00 0.00 0.00 93 1020.8
20260831124518 73 356 0.0 0.0 0.00 0.00 0.00 94 1020.6
20260831124014 73 3 0.0 0.0 0.00 0.00 0.00 95 1020.6
20260831123513 71 10 1.0 1.0 0.00 0.00 0.00 98 1020.5
20260831123008 71 349 0.0 0.0 0.00 0.00 0.00 99 1020.6
20260831122502 70 355 0.0 0.0 0.00 0.00 0.00 99 1020.6
20260831121958 70 350 0.0 0.0 0.00 0.00 0.00 99 1020.5
20260831121453 69 343 0.0 0.0 0.00 0.00 0.00 99 1020.7
20260831120949 70 349 0.0 0.0 0.00 0.00 0.00 99 1020.6
20260831120448 69 341 0.0 0.0 0.00 0.00 0.00 99 1020.6
20260831115943 69 349 0.0 0.0 0.00 0.00 0.00 99 1020.7
20260831115439 69 347 0.0 0.0 0.00 0.00 0.00 99 1020.4
20260831114939 69 346 0.0 0.0 0.00 0.00 0.00 99 1020.4
20260831114437 69 345 0.0 0.0 0.00 0.00 0.00 99 1020.2
20260831113934 69 346 0.0 0.0 0.00 0.00 0.00 99 1020.1
20260831113433 69 348 0.0 0.0 0.00 0.00 0.00 99 1020.3
20260831112929 69 349 0.0 0.0 0.00 0.00 0.00 99 1020.2
20260831112428 69 347 0.0 0.0 0.00 0.00 0.00 99 1020.2
20260831111924 69 344 0.0 0.0 0.00 0.00 0.00 99 1020.2
20260831111419 69 347 0.0 0.0 0.00 0.00 0.00 99 1020.3
20260831110915 69 347 0.0 0.0 0.00 0.00 0.00 99 1020.0
20260831110415 69 347 0.0 0.0 0.00 0.00 0.00 99 1020.0
20260831105914 69 347 0.0 0.0 0.00 0.00 0.00 99 1020.1
20260831105410 69 344 0.0 0.0 0.00 0.00 0.00 99 1019.9
20260831104905 69 347 0.0 0.0 0.00 0.00 0.00 99 1019.9
20260831104401 69 348 0.0 0.0 0.00 0.00 0.00 99 1019.7
20260831103856 69 344 0.0 0.0 0.00 0.00 0.00 99 1019.7
20260831103351 69 346 0.0 0.0 0.00 0.00 0.00 99 1019.7
20260831102846 69 343 0.0 0.0 0.00 0.00 0.00 99 1019.8
20260831102336 69 345 0.0 0.0 0.00 0.00 0.00 99 1019.8
20260831101831 69 345 0.0 0.0 0.00 0.00 0.00 99 1019.6
20260831101326 69 344 0.0 0.0 0.00 0.00 0.00 99 1019.6
20260831100822 69 348 0.0 0.0 0.00 0.00 0.00 99 1019.6
20260831100318 69 347 0.0 0.0 0.00 0.00 0.00 99 1019.5
20260831095812 69 351 0.0 0.0 0.00 0.00 0.00 99 1019.5
20260831095311 69 350 0.0 0.0 0.00 0.00 0.00 99 1019.4
20260831094807 69 346 0.0 0.0 0.00 0.00 0.00 99 1019.4
20260831094302 69 343 0.0 0.0 0.00 0.00 0.00 99 1019.4
20260831093758 69 347 0.0 0.0 0.00 0.00 0.00 99 1019.4
20260831093258 69 343 0.0 0.0 0.00 0.00 0.00 99 1019.4
20260831092754 69 348 0.0 0.0 0.00 0.00 0.00 99 1019.6
20260831092250 69 346 0.0 0.0 0.00 0.00 0.00 99 1019.7
20260831091749 69 346 0.0 0.0 0.00 0.00 0.00 99 1019.4
20260831091245 69 346 0.0 0.0 0.00 0.00 0.00 99 1019.4
20260831090741 69 346 0.0 0.0 0.00 0.00 0.00 99 1019.5
20260831090237 69 348 0.0 0.0 0.00 0.00 0.00 99 1019.3
20260831085732 69 346 0.0 0.0 0.00 0.00 0.00 99 1019.2
20260831085227 69 347 0.0 0.0 0.00 0.00 0.00 99 1019.3
20260831084722 69 346 0.0 0.0 0.00 0.00 0.00 99 1019.3
20260831084219 68 346 0.0 0.0 0.00 0.00 0.00 99 1019.1
20260831083714 69 339 0.0 0.0 0.00 0.00 0.00 99 1019.1
20260831083210 68 344 0.0 0.0 0.00 0.00 0.00 99 1019.1
20260831082708 68 344 0.0 0.0 0.00 0.00 0.00 99 1019.2
20260831082204 68 347 0.0 0.0 0.00 0.00 0.00 99 1019.1
20260831081659 68 347 0.0 0.0 0.00 0.00 0.00 99 1019.1
20260831081155 68 343 0.0 0.0 0.00 0.00 0.00 99 1018.8
20260831080651 68 341 0.0 0.0 0.00 0.00 0.00 99 1018.9
20260831080150 68 343 0.0 0.0 0.00 0.00 0.00 99 1019.0
20260831075646 68 344 0.0 0.0 0.00 0.00 0.00 99 1018.9
20260831075141 68 344 0.0 0.0 0.00 0.00 0.00 99 1019.0
20260831074640 68 343 0.0 0.0 0.00 0.00 0.00 99 1018.9
20260831074135 68 343 0.0 0.0 0.00 0.00 0.00 99 1019.0
20260831073630 68 343 0.0 0.0 0.00 0.00 0.00 99 1019.0
20260831073129 68 345 0.0 0.0 0.00 0.00 0.00 99 1019.1
20260831072625 68 345 0.0 0.0 0.00 0.00 0.00 99 1019.1
20260831072122 68 344 0.0 0.0 0.00 0.00 0.00 99 1019.0
20260831071620 68 347 0.0 0.0 0.00 0.00 0.00 99 1019.4
20260831071116 68 345 0.0 0.0 0.00 0.00 0.00 99 1019.4
20260831070615 68 345 0.0 0.0 0.00 0.00 0.00 99 1019.3
20260831070109 68 345 0.0 0.0 0.00 0.00 0.00 99 1019.3
20260831065608 68 344 0.0 0.0 0.00 0.00 0.00 99 1019.5
20260831065102 68 345 0.0 0.0 0.00 0.00 0.00 99 1019.7
20260831064557 69 346 0.0 0.0 0.00 0.00 0.00 99 1019.4
20260831064053 68 346 0.0 0.0 0.00 0.00 0.00 99 1019.8
20260831063548 68 346 0.0 0.0 0.00 0.00 0.00 99 1019.8
20260831063048 68 347 0.0 0.0 0.00 0.00 0.00 99 1019.8
20260831062543 68 346 0.0 0.0 0.00 0.00 0.00 99 1019.8
20260831062043 69 346 0.0 0.0 0.00 0.00 0.00 99 1019.8
20260831061541 69 343 0.0 0.0 0.00 0.00 0.00 99 1019.6
20260831061037 69 344 0.0 0.0 0.00 0.00 0.00 99 1019.7
20260831060532 68 344 0.0 0.0 0.00 0.00 0.00 99 1019.7
20260831060028 68 343 0.0 0.0 0.00 0.00 0.00 99 1019.9
20260831055522 68 343 0.0 0.0 0.00 0.00 0.00 99 1019.7
20260831055017 68 343 0.0 0.0 0.00 0.00 0.00 99 1019.6
20260831054511 69 343 0.0 0.0 0.00 0.00 0.00 99 1019.7
20260831054010 69 344 0.0 0.0 0.00 0.00 0.00 99 1019.7
20260831053508 69 344 0.0 0.0 0.00 0.00 0.00 99 1019.8
20260831053004 69 343 0.0 0.0 0.00 0.00 0.00 99 1019.7
20260831052458 69 344 0.0 0.0 0.00 0.00 0.00 99 1019.7
20260831051956 69 343 0.0 0.0 0.00 0.00 0.00 99 1019.8
20260831051454 69 344 0.0 0.0 0.00 0.00 0.00 99 1019.9
20260831050949 69 344 0.0 0.0 0.00 0.00 0.00 99 1019.9
20260831050449 69 344 0.0 0.0 0.00 0.00 0.00 99 1019.6
20260831045947 69 344 0.0 0.0 0.00 0.00 0.00 99 1019.7
20260831045447 69 345 0.0 0.0 0.00 0.00 0.00 99 1019.8
20260831044942 69 345 0.0 0.0 0.00 0.00 0.00 99 1019.7
20260831044438 69 345 0.0 0.0 0.00 0.00 0.00 99 1019.6
20260831043933 69 348 0.0 0.0 0.00 0.00 0.00 99 1019.7
20260831043432 70 346 0.0 0.0 0.00 0.00 0.00 98 1019.8
20260831042928 70 343 0.0 0.0 0.00 0.00 0.00 98 1019.7
20260831042427 70 346 0.0 0.0 0.00 0.00 0.00 98 1019.6
20260831041922 70 347 0.0 0.0 0.00 0.00 0.00 98 1019.7
20260831041422 70 346 0.0 0.0 0.00 0.00 0.00 98 1019.8
20260831040917 70 346 0.0 0.0 0.00 0.00 0.00 98 1019.9
20260831040412 70 347 0.0 0.0 0.00 0.00 0.00 98 1019.8
20260831035909 70 345 0.0 0.0 0.00 0.00 0.00 98 1020.0
20260831035408 70 347 0.0 0.0 0.00 0.00 0.00 97 1020.0
20260831034903 70 347 0.0 0.0 0.00 0.00 0.00 97 1019.9
20260831034359 70 347 0.0 0.0 0.00 0.00 0.00 97 1020.0
20260831033853 71 348 0.0 0.0 0.00 0.00 0.00 97 1019.7
20260831033348 71 348 0.0 0.0 0.00 0.00 0.00 97 1019.8
20260831032844 70 345 0.0 0.0 0.00 0.00 0.00 96 1019.8
20260831032338 71 345 0.0 0.0 0.00 0.00 0.00 96 1019.7
20260831031834 71 345 0.0 0.0 0.00 0.00 0.00 96 1020.1
20260831031333 71 346 0.0 0.0 0.00 0.00 0.00 96 1019.9
20260831030828 71 345 0.0 0.0 0.00 0.00 0.00 96 1019.9
20260831030326 71 345 0.0 0.0 0.00 0.00 0.00 96 1019.9
20260831025825 71 343 0.0 0.0 0.00 0.00 0.00 96 1019.8
20260831025320 71 344 0.0 0.0 0.00 0.00 0.00 95 1019.9
20260831024816 71 345 0.0 0.0 0.00 0.00 0.00 95 1019.9
20260831024315 71 345 0.0 0.0 0.00 0.00 0.00 95 1020.0
20260831023814 71 345 0.0 0.0 0.00 0.00 0.00 95 1019.9
20260831023312 71 345 0.0 0.0 0.00 0.00 0.00 94 1020.0
20260831022808 71 346 0.0 0.0 0.00 0.00 0.00 94 1020.0
20260831022306 72 346 0.0 0.0 0.00 0.00 0.00 94 1019.8
20260831021801 72 341 0.0 0.0 0.00 0.00 0.00 94 1020.0
20260831021256 72 345 0.0 0.0 0.00 0.00 0.00 94 1019.6
20260831020753 72 347 0.0 0.0 0.00 0.00 0.00 93 1019.8
20260831020252 72 347 0.0 0.0 0.00 0.00 0.00 93 1019.8
20260831015747 72 347 0.0 0.0 0.00 0.00 0.00 93 1019.8
20260831015242 72 348 0.0 0.0 0.00 0.00 0.00 92 1019.9
20260831014737 72 348 0.0 0.0 0.00 0.00 0.00 92 1019.9
20260831014232 72 348 0.0 0.0 0.00 0.00 0.00 92 1019.7
20260831013728 72 347 0.0 0.0 0.00 0.00 0.00 92 1019.7
20260831013227 73 347 0.0 0.0 0.00 0.00 0.00 91 1019.6
20260831012722 73 347 0.0 0.0 0.00 0.00 0.00 91 1019.7